• In Russia
  • List of Countries
  • For 7 days
  • Water Temperature
  • Satellite Maps
  • Weather Map
  • Weather Widgets
  • user-avatar
    Login

    Hourly Weather Ghazni

    Today, 16 October, Tuesday

    Time Temperature Precipitation Wind Pressure Humidity
    00:00 +9°C° 0 mm 3 mps 585 mmHg 39%
    01:00 +9°C° 0 mm 3 mps 585 mmHg 41%
    02:00 +8°C° 0 mm 3 mps 585 mmHg 43%
    03:00 +8°C° 0 mm 2 mps 584 mmHg 44%
    04:00 +7°C° 0 mm 2 mps 584 mmHg 46%
    05:00 +7°C° 0 mm 2 mps 584 mmHg 48%
    06:00 +7°C° 0 mm 2 mps 584 mmHg 46%
    07:00 +7°C° 0 mm 2 mps 585 mmHg 45%
    08:00 +8°C° 0 mm 2 mps 585 mmHg 44%
    09:00 +9°C° 0 mm 2 mps 585 mmHg 39%
    10:00 +12°C° 0 mm 2 mps 586 mmHg 34%
    11:00 +12°C° 0 mm 3 mps 586 mmHg 30%
    12:00 +13°C° 0 mm 4 mps 586 mmHg 26%
    13:00 +14°C° 0 mm 5 mps 586 mmHg 23%
    14:00 +16°C° 0 mm 6 mps 587 mmHg 19%
    15:00 +15°C° 0 mm 6 mps 587 mmHg 19%
    16:00 +15°C° 0 mm 6 mps 586 mmHg 20%
    17:00 +15°C° 0 mm 7 mps 586 mmHg 20%
    18:00 +14°C° 0 mm 5 mps 586 mmHg 23%
    19:00 +13°C° 0 mm 4 mps 586 mmHg 26%
    20:00 +11°C° 0 mm 3 mps 586 mmHg 29%
    21:00 +11°C° 0 mm 3 mps 586 mmHg 32%
    22:00 +10°C° 0 mm 2 mps 586 mmHg 34%
    23:00 +9°C° 0 mm 2 mps 586 mmHg 36%

    Tomorrow, 17 October, Wednesday

    Time Temperature Precipitation Wind Pressure Humidity
    00:00 +9°C° 0 mm 2 mps 586 mmHg 38%
    01:00 +9°C° 0 mm 1 mps 586 mmHg 40%
    02:00 +8°C° 0 mm 1 mps 585 mmHg 42%
    03:00 +8°C° 0 mm 1 mps 585 mmHg 43%
    04:00 +7°C° 0 mm 1 mps 585 mmHg 45%
    05:00 +7°C° 0 mm 1 mps 585 mmHg 46%
    06:00 +8°C° 0 mm 1 mps 585 mmHg 43%
    07:00 +8°C° 0 mm 1 mps 585 mmHg 41%
    08:00 +9°C° 0 mm 1 mps 586 mmHg 38%
    09:00 +10°C° 0 mm 1 mps 586 mmHg 33%
    10:00 +12°C° 0 mm 1 mps 587 mmHg 29%
    11:00 +13°C° 0 mm 1 mps 587 mmHg 24%
    12:00 +14°C° 0 mm 1 mps 587 mmHg 22%
    13:00 +15°C° 0 mm 2 mps 587 mmHg 20%
    14:00 +16°C° 0 mm 2 mps 586 mmHg 18%
    15:00 +15°C° 0 mm 2 mps 586 mmHg 18%
    16:00 +14°C° 0 mm 3 mps 586 mmHg 18%
    17:00 +14°C° 0 mm 3 mps 586 mmHg 18%
    18:00 +13°C° 0 mm 3 mps 586 mmHg 22%
    19:00 +13°C° 0 mm 2 mps 586 mmHg 25%
    20:00 +12°C° 0 mm 2 mps 586 mmHg 29%
    21:00 +10°C° 0 mm 2 mps 585 mmHg 31%
    22:00 +9°C° 0 mm 2 mps 585 mmHg 32%
    23:00 +10°C° 0 mm 1 mps 585 mmHg 34%

    Day after tomorrow, 18 October, Thursday

    Time Temperature Precipitation Wind Pressure Humidity
    00:00 +9°C° 0 mm 1 mps 585 mmHg 35%
    01:00 +9°C° 0 mm 1 mps 585 mmHg 36%
    02:00 +8°C° 0 mm 1 mps 584 mmHg 37%
    03:00 +8°C° 0 mm 1 mps 584 mmHg 38%
    04:00 +7°C° 0 mm 1 mps 584 mmHg 39%
    05:00 +7°C° 0 mm 1 mps 584 mmHg 40%
    06:00 +7°C° 0 mm 1 mps 584 mmHg 37%
    07:00 +8°C° 0 mm 1 mps 585 mmHg 35%
    08:00 +9°C° 0 mm 1 mps 585 mmHg 32%
    09:00 +10°C° 0 mm 1 mps 586 mmHg 30%
    10:00 +11°C° 0 mm 1 mps 586 mmHg 28%
    11:00 +12°C° 0 mm 1 mps 587 mmHg 25%
    12:00 +13°C° 0 mm 2 mps 586 mmHg 24%
    13:00 +14°C° 0 mm 2 mps 586 mmHg 22%
    14:00 +14°C° 0 mm 3 mps 586 mmHg 20%
    15:00 +14°C° 0 mm 3 mps 586 mmHg 20%
    16:00 +14°C° 0 mm 4 mps 586 mmHg 20%
    17:00 +14°C° 0 mm 4 mps 586 mmHg 20%
    18:00 +13°C° 0 mm 4 mps 586 mmHg 23%
    19:00 +12°C° 0 mm 3 mps 586 mmHg 27%
    20:00 +10°C° 0 mm 3 mps 586 mmHg 30%
    21:00 +10°C° 0 mm 2 mps 586 mmHg 32%
    22:00 +9°C° 0 mm 2 mps 586 mmHg 35%
    23:00 +8°C° 0 mm 2 mps 585 mmHg 37%

    19 October, Friday

    Time Temperature Precipitation Wind Pressure Humidity
    00:00 +9°C° 0 mm 1 mps 585 mmHg 38%
    01:00 +8°C° 0 mm 1 mps 585 mmHg 39%
    02:00 +7°C° 0 mm 1 mps 584 mmHg 40%
    03:00 +7°C° 0 mm 1 mps 584 mmHg 41%
    04:00 +7°C° 0 mm 1 mps 584 mmHg 42%
    05:00 +6°C° 0 mm 1 mps 584 mmHg 42%
    06:00 +7°C° 0 mm 1 mps 584 mmHg 40%
    07:00 +7°C° 0 mm 1 mps 585 mmHg 38%
    08:00 +8°C° 0 mm 1 mps 586 mmHg 35%
    09:00 +9°C° 0 mm 1 mps 586 mmHg 33%
    10:00 +10°C° 0 mm 1 mps 587 mmHg 31%
    11:00 +12°C° 0 mm 1 mps 587 mmHg 29%
    12:00 +12°C° 0 mm 1 mps 587 mmHg 27%
    13:00 +13°C° 0 mm 2 mps 587 mmHg 25%
    14:00 +14°C° 0 mm 2 mps 587 mmHg 24%
    15:00 +14°C° 0 mm 2 mps 587 mmHg 24%
    16:00 +14°C° 0 mm 2 mps 587 mmHg 24%
    17:00 +13°C° 0 mm 3 mps 587 mmHg 23%
    18:00 +13°C° 0 mm 2 mps 587 mmHg 25%
    19:00 +12°C° 0 mm 2 mps 587 mmHg 27%
    20:00 +10°C° 0 mm 2 mps 587 mmHg 29%
    21:00 +10°C° 0 mm 1 mps 587 mmHg 30%
    22:00 +10°C° 0 mm 1 mps 587 mmHg 31%
    23:00 +9°C° 0 mm 1 mps 587 mmHg 32%

    20 October, Saturday

    Time Temperature Precipitation Wind Pressure Humidity
    00:00 +8°C° 0 mm 1 mps 587 mmHg 33%
    01:00 +7°C° 0 mm 0 mps 586 mmHg 34%
    02:00 +6°C° 0 mm 0 mps 586 mmHg 35%
    03:00 +6°C° 0 mm 0 mps 586 mmHg 36%
    04:00 +5°C° 0 mm 0 mps 585 mmHg 37%
    05:00 +5°C° 0 mm 0 mps 585 mmHg 38%
    06:00 +6°C° 0 mm 0 mps 586 mmHg 36%
    07:00 +7°C° 0 mm 0 mps 587 mmHg 33%
    08:00 +7°C° 0 mm 0 mps 588 mmHg 31%
    09:00 +10°C° 0 mm 1 mps 588 mmHg 28%
    10:00 +11°C° 0 mm 1 mps 589 mmHg 25%
    11:00 +12°C° 0 mm 1 mps 589 mmHg 23%
    12:00 +13°C° 0 mm 2 mps 589 mmHg 21%
    13:00 +14°C° 0 mm 2 mps 589 mmHg 19%
    14:00 +13°C° 0 mm 3 mps 588 mmHg 18%
    15:00 +13°C° 0 mm 3 mps 588 mmHg 18%
    16:00 +13°C° 0 mm 3 mps 588 mmHg 17%
    17:00 +13°C° 0 mm 3 mps 588 mmHg 17%
    18:00 +13°C° 0 mm 2 mps 588 mmHg 19%
    19:00 +12°C° 0 mm 2 mps 588 mmHg 21%
    20:00 +11°C° 0 mm 1 mps 588 mmHg 23%
    21:00 +10°C° 0 mm 1 mps 588 mmHg 24%
    22:00 +9°C° 0 mm 1 mps 588 mmHg 26%
    23:00 +9°C° 0 mm 1 mps 587 mmHg 27%

    21 October, Sunday

    Time Temperature Precipitation Wind Pressure Humidity
    00:00 +8°C° 0 mm 1 mps 587 mmHg 28%
    01:00 +8°C° 0 mm 1 mps 587 mmHg 29%
    02:00 +6°C° 0 mm 0 mps 586 mmHg 30%
    03:00 +6°C° 0 mm 0 mps 586 mmHg 31%
    04:00 +5°C° 0 mm 0 mps 586 mmHg 31%
    05:00 +5°C° 0 mm 0 mps 585 mmHg 32%
    06:00 +6°C° 0 mm 0 mps 586 mmHg 30%
    07:00 +6°C° 0 mm 0 mps 587 mmHg 28%
    08:00 +7°C° 0 mm 0 mps 588 mmHg 26%
    09:00 +10°C° 0 mm 1 mps 588 mmHg 24%
    10:00 +11°C° 0 mm 1 mps 589 mmHg 22%
    11:00 +12°C° 0 mm 1 mps 589 mmHg 20%
    12:00 +13°C° 0 mm 2 mps 589 mmHg 19%
    13:00 +14°C° 0 mm 2 mps 589 mmHg 17%
    14:00 +14°C° 0 mm 3 mps 589 mmHg 16%
    15:00 +14°C° 0 mm 3 mps 588 mmHg 16%
    16:00 +14°C° 0 mm 3 mps 588 mmHg 16%
    17:00 +14°C° 0 mm 3 mps 588 mmHg 16%
    18:00 +12°C° 0 mm 3 mps 588 mmHg 18%
    19:00 +12°C° 0 mm 2 mps 588 mmHg 20%
    20:00 +10°C° 0 mm 2 mps 588 mmHg 22%
    21:00 +10°C° 0 mm 1 mps 588 mmHg 23%
    22:00 +9°C° 0 mm 1 mps 588 mmHg 24%
    23:00 +9°C° 0 mm 1 mps 587 mmHg 25%
    Show more